カタログに戻る

SPACEMOBILE-013

運用中VLEO
NORAD 100240·PAYLOAD·🇺🇸 United States

打ち上げ Aug 5, 2026 から Cape Canaveral Space Force Station

Loading…

次のパス (今後24時間)

TLE

最新Source: Space-Track

元期: Sep 14, 2026, 09:59 UTC

1 A0240U 26179A   26257.41664680  .00001237  00000-0  85909-4 0  9996
2 A0240  52.9960 145.9509 0007350  91.1449 269.0384 15.13117679  6071

AllMySatでSPACEMOBILE-013をリアルタイム追跡

Download on the App Store